Location: Kuffner-Sternwarte
(48.2130°N, 16.2960°E)
Time: 16:13:41
(UTC+02:00)

COROT - Pass Details

Date: 09 May 2026
Orbit: 594 x 855 km, 90.1° (Epoch: 21 May)

Event Time Altitude Azimuth Distance (km) Brightness Sun altitude
Rises 00:00:38 0° 2° (N) 3,410 10.6 -23.5°
Reaches altitude 10° 00:03:05 10° 4° (N) 2,450 9.6 -23.6°
Maximum altitude 00:08:37 81° 92° (E) 816 6.0 -23.8°
Enters shadow 00:09:27 63° 162° (SSE) 882 5.9 -23.8°
